Wind_Speed
11 10 9 9 8 8 11 11 11 12 12 11 12 14 14 13 12 8 4 1 2 3 3 3 3 2 2 4 8 13 15 19 21 24 28 32 34 36 35 35 35 37 38 39 42
12 11 10 8 8 8 9 10 11 12 12 12 13 14 16 16 13 11 7 3 1 1 1 1 1 3 5 8 9 11 13 14 17 19 22 26 28 33 36 37 39 40 42 43 45
13 12 9 7 8 8 9 10 11 12 12 12 12 13 16 16 15 13 10 6 5 4 4 4 4 5 6 10 12 13 15 18 19 19 20 22 24 26 29 31 34 38 40 42 44
12 11 9 8 7 9 10 11 12 13 14 13 13 13 15 15 13 13 11 10 10 10 10 10 9 9 10 11 13 15 16 18 19 21 22 24 25 27 29 30 32 33 35 38 38
14 13 12 11 9 9 10 13 14 16 17 18 17 17 16 16 16 16 15 15 15 15 15 14 14 13 13 14 16 15 16 18 19 20 22 24 26 27 30 32 32 33 36 38 40
17 16 15 14 13 12 11 13 14 17 18 19 20 21 20 20 21 20 19 18 19 19 18 18 17 16 16 16 16 16 17 18 20 22 24 26 28 31 34 36 38 38 40 43 44
21 20 19 20 18 16 15 16 16 15 16 19 20 21 21 20 21 21 22 21 20 21 22 21 21 20 19 18 18 19 22 24 26 27 29 30 31 34 37 38 40 42 45 46 49
27 25 25 24 24 22 20 19 19 21 22 21 21 20 19 18 19 20 21 21 21 22 23 22 22 22 22 24 25 26 27 29 31 33 33 35 34 38 41 43 44 45 47 49 50
31 31 30 30 29 29 28 28 26 26 27 27 26 25 23 22 21 22 23 23 23 25 27 27 28 28 30 30 31 32 33 34 36 37 37 38 37 39 43 45 46 47 48 51 53
38 37 37 36 36 37 36 38 36 31 32 31 31 31 30 31 28 28 29 29 28 30 31 32 32 33 34 34 33 33 34 36 37 39 39 38 39 40 42 45 46 46 47 49 51
43 41 42 43 43 43 44 44 41 41 36 35 36 35 35 35 35 34 34 36 37 37 34 35 35 34 33 33 32 33 36 37 39 40 42 41 40 42 44 47 46 47 49 50 50
51 49 48 50 50 52 51 50 48 47 45 43 42 41 42 43 42 42 44 44 44 42 41 40 38 39 38 38 36 37 38 39 41 42 43 44 44 45 47 48 50 50 50 50 50
59 57 54 53 53 54 55 55 54 52 51 50 49 49 50 51 51 51 51 48 47 47 47 47 45 44 44 43 43 44 45 43 44 47 45 46 48 49 50 50 52 52 53 51 50
60 61 59 57 56 57 57 56 56 56 54 53 56 55 57 55 54 54 54 52 53 52 52 51 51 51 51 51 51 51 50 49 49 49 50 50 50 49 51 52 53 53 52 50 48
60 62 60 57 57 59 59 59 59 60 58 58 59 61 61 61 60 59 58 58 57 57 58 56 57 58 58 57 58 57 58 56 54 51 52 52 53 52 52 52 52 53 50 47 49
62 64 64 61 61 62 63 63 61 62 61 60 60 60 61 61 59 59 59 59 60 60 62 62 63 61 62 62 61 62 63 63 58 52 52 52 51 53 53 54 52 51 48 48 49
62 64 63 62 62 62 63 64 64 63 64 60 61 62 62 62 61 60 60 60 61 63 63 65 65 64 63 65 66 67 64 61 60 55 52 50 50 55 54 54 52 50 49 47 48
62 64 65 64 66 64 63 64 65 66 67 67 67 67 66 64 64 65 65 67 65 65 65 68 70 69 67 67 66 65 63 61 58 55 52 51 54 53 53 52 52 52 49 48 48
69 70 71 70 70 71 69 68 69 70 72 73 73 71 71 70 70 71 70 70 69 71 71 71 73 71 71 71 67 66 64 61 58 56 53 53 56 56 54 52 52 51 52 50 51
77 78 79 76 75 76 78 79 78 77 76 77 80 77 77 76 76 75 74 73 75 77 74 76 76 75 74 70 67 67 65 62 59 56 53 52 54 56 54 53 51 51 50 50 52
79 81 84 85 81 80 82 84 84 86 87 85 83 81 80 82 83 81 80 78 80 79 80 81 81 79 74 70 68 64 62 63 61 57 53 52 54 57 54 53 53 52 51 53 54
88 87 86 86 85 85 86 85 85 86 88 89 89 88 87 89 89 86 82 84 84 82 81 79 78 78 77 73 70 66 63 62 63 62 56 52 54 54 56 55 54 54 55 55 57
88 88 89 90 90 90 90 89 88 89 90 89 89 90 88 85 83 83 82 75 73 73 72 71 72 72 70 68 69 67 63 59 59 58 54 51 54 53 55 54 54 55 56 57 60
66 70 75 79 83 84 85 84 82 82 83 84 83 84 81 78 73 67 66 68 68 67 68 66 64 62 60 60 63 61 59 57 54 52 56 52 53 53 55 55 57 59 59 60 62
54 54 63 63 67 69 73 74 73 74 74 70 68 65 64 61 58 57 57 59 61 60 63 63 62 65 61 59 59 57 57 55 54 54 52 55 52 56 55 57 58 59 61 61 63
61 57 57 62 63 62 62 61 64 65 64 63 62 58 55 53 51 53 55 55 53 54 58 60 63 67 66 63 62 58 57 55 56 56 55 55 54 54 55 56 58 59 62 64 67
66 65 64 63 66 62 62 64 63 64 62 60 58 55 53 52 51 52 54 55 54 51 54 58 61 72 68 64 71 58 57 56 58 59 59 59 59 57 56 56 57 60 62 65 67
Wind_Direction
230 245 252 249 230 220 218 218 229 233 229 227 222 227 224 224 223 216 199 167 58 65 73 94 120 158 215 225 232 241 247 250 254 253 251 250 250 253 255 256 258 259 258 256 256
229 238 243 240 235 219 215 217 229 233 234 232 229 224 221 225 230 237 237 239 218 347 13 16 297 246 246 244 244 251 260 260 260 260 255 255 254 255 256 258 260 261 260 260 262
234 237 235 233 235 227 220 221 224 224 228 229 224 224 220 228 239 247 248 244 242 261 284 291 286 276 263 261 257 252 260 269 269 266 267 266 266 263 263 263 264 263 262 262 264
229 238 237 235 234 235 231 226 223 224 224 228 224 226 225 228 230 238 241 250 261 268 275 279 280 277 275 278 275 265 263 265 270 273 273 270 268 267 266 264 266 266 268 268 268
229 232 237 245 244 246 243 239 237 234 232 233 235 235 237 240 242 245 251 263 267 268 273 278 277 275 277 282 280 269 263 266 269 273 275 277 278 279 277 275 272 272 271 272 272
231 233 234 234 242 252 258 254 246 243 244 243 242 243 244 244 246 250 255 260 266 269 272 274 277 275 278 281 276 272 270 273 275 274 276 277 278 277 275 275 275 274 273 273 273
238 240 242 240 240 244 246 252 255 254 252 251 250 251 252 251 252 255 257 262 268 273 277 277 277 275 277 277 273 274 277 276 277 278 280 280 280 279 279 278 277 275 275 274 275
239 241 246 246 245 250 256 256 255 254 257 257 254 252 251 252 255 260 265 267 270 274 276 276 276 277 278 279 279 280 279 280 281 281 281 282 284 284 283 282 282 281 281 281 280
245 246 247 249 251 252 258 264 264 261 258 257 254 255 254 254 258 265 268 272 275 277 278 279 280 281 280 281 284 285 286 285 286 286 285 286 285 285 284 283 282 282 281 280 280
248 254 252 247 254 259 262 265 265 262 260 259 255 252 252 257 259 266 268 270 277 281 280 281 282 282 284 285 284 287 290 291 288 286 287 286 287 288 290 286 284 282 280 280 281
251 251 257 250 253 259 263 264 264 263 258 256 256 256 253 257 261 264 268 273 276 279 279 280 280 282 282 284 285 287 290 292 295 291 290 290 289 291 293 291 289 286 283 282 282
261 255 257 255 255 259 260 261 262 262 260 258 255 254 255 256 257 261 267 270 273 276 273 275 278 279 281 282 284 287 289 292 291 292 292 291 290 291 293 293 292 290 288 287 286
260 259 258 255 254 257 257 259 259 261 262 262 262 262 260 258 260 261 265 266 268 269 272 274 275 275 276 278 280 281 287 290 292 289 290 290 290 289 291 292 291 291 292 293 295
258 258 258 258 255 256 257 258 259 261 264 264 265 266 265 266 264 265 265 267 268 270 271 272 273 275 276 278 279 282 284 290 291 287 287 289 288 289 291 291 291 294 294 294 295
255 257 258 257 256 256 258 259 259 260 262 263 260 260 263 265 268 268 269 270 271 271 270 271 273 274 276 279 280 283 284 287 288 283 282 284 287 286 287 290 292 290 291 293 294
254 254 256 254 252 252 254 256 257 257 259 256 259 262 263 265 267 270 273 276 275 274 275 275 274 273 274 275 276 279 282 284 284 282 279 283 282 283 287 288 288 288 289 291 292
253 254 255 254 253 251 250 250 252 255 254 257 259 262 264 266 269 270 274 275 274 275 275 277 274 271 271 270 271 275 278 278 280 283 281 278 277 281 283 287 287 286 289 289 289
253 254 254 255 250 250 248 248 251 254 254 258 259 260 260 264 267 270 273 275 275 276 277 276 272 273 271 272 271 271 273 275 277 280 279 274 277 278 281 282 282 284 287 288 291
252 253 254 254 252 251 251 251 253 255 259 260 263 264 268 267 271 273 275 277 276 276 273 272 272 270 271 269 270 270 270 273 275 276 277 275 276 277 279 279 279 280 282 285 288
252 254 256 256 256 256 253 255 254 258 263 264 264 268 269 269 270 272 274 274 275 273 273 271 272 270 270 269 269 268 269 270 271 272 273 275 275 275 275 277 276 276 280 283 288
253 254 255 255 257 258 258 259 261 262 263 265 266 267 269 270 270 271 272 271 272 271 270 269 267 266 266 265 266 265 266 268 268 269 270 271 272 275 275 274 273 274 278 282 288
255 256 256 256 258 259 259 259 261 263 263 264 265 267 269 268 270 270 270 269 271 270 267 266 263 263 260 263 264 266 267 267 269 269 269 268 273 271 273 273 274 276 279 283 286
255 256 255 255 256 259 259 259 261 263 264 264 265 267 269 269 269 269 269 269 266 264 261 259 257 258 259 261 262 262 266 269 267 269 267 268 267 268 270 272 275 277 280 282 286
262 261 259 257 256 257 258 259 260 262 264 263 266 267 269 270 270 267 268 267 263 260 257 255 255 255 257 257 259 263 263 266 266 268 266 264 264 265 267 271 274 278 282 286 291
271 268 261 260 255 256 257 258 260 261 261 264 264 265 266 265 266 265 264 261 261 260 257 253 252 248 249 250 256 258 261 261 264 260 261 262 263 268 270 272 275 280 285 289 291
274 277 273 259 255 254 254 253 253 255 258 259 261 262 264 266 267 269 269 265 262 259 256 251 246 247 247 248 249 252 255 260 260 258 260 263 267 268 271 273 277 280 284 287 291
273 273 275 264 255 249 251 251 251 253 255 257 259 258 261 264 267 270 271 271 271 266 256 249 242 241 244 249 248 248 252 255 256 259 260 261 263 265 272 278 281 284 286 290 294
Height
10879 10880 10880 10881 10882 10883 10884 10886 10887 10888 10890 10891 10892 10893 10894 10894 10895 10896 10897 10897 10897 10898 10899 10900 10901 10901 10902 10903 10903 10903 10905 10905 10907 10908 10909 10910 10912 10913 10915 10915 10916 10916 10917 10918 10917
10876 10877 10878 10879 10879 10880 10882 10884 10885 10886 10887 10889 10890 10890 10892 10893 10894 10894 10896 10896 10896 10897 10898 10899 10900 10901 10901 10901 10902 10902 10901 10902 10903 10904 10905 10905 10907 10908 10909 10910 10909 10909 10911 10911 10910
10874 10875 10875 10876 10877 10878 10879 10881 10883 10884 10885 10887 10888 10889 10890 10890 10892 10892 10893 10894 10895 10895 10896 10898 10898 10899 10900 10899 10899 10900 10899 10898 10898 10900 10901 10902 10901 10902 10903 10904 10903 10902 10903 10903 10901
10871 10872 10873 10874 10875 10876 10878 10879 10881 10882 10883 10884 10885 10887 10888 10889 10890 10890 10891 10892 10893 10893 10893 10894 10896 10897 10897 10897 10897 10897 10897 10895 10894 10895 10895 10895 10896 10897 10896 10896 10896 10896 10895 10894 10894
10867 10868 10870 10871 10872 10874 10875 10877 10878 10879 10880 10881 10882 10884 10885 10887 10888 10888 10889 10890 10890 10890 10890 10891 10892 10893 10893 10893 10893 10893 10893 10892 10891 10891 10891 10890 10890 10890 10889 10888 10889 10889 10888 10886 10885
10863 10865 10866 10868 10869 10870 10872 10873 10875 10876 10877 10878 10879 10880 10882 10883 10883 10884 10885 10886 10887 10887 10887 10887 10887 10888 10889 10889 10889 10888 10888 10888 10887 10887 10886 10886 10885 10884 10882 10882 10881 10880 10879 10877 10877
10858 10860 10862 10863 10865 10866 10867 10869 10871 10872 10874 10875 10875 10876 10878 10880 10880 10880 10881 10881 10882 10883 10882 10883 10883 10883 10884 10884 10884 10884 10882 10882 10881 10881 10880 10879 10879 10876 10874 10873 10873 10872 10870 10869 10866
10853 10855 10856 10858 10859 10861 10862 10864 10866 10867 10869 10870 10871 10871 10872 10874 10875 10875 10876 10877 10877 10877 10877 10878 10878 10878 10878 10878 10878 10877 10877 10876 10874 10873 10872 10871 10871 10867 10864 10863 10863 10861 10858 10857 10855
10846 10848 10850 10852 10852 10854 10856 10858 10860 10862 10863 10864 10865 10866 10867 10868 10870 10870 10870 10871 10872 10872 10871 10872 10872 10872 10872 10872 10871 10870 10869 10868 10867 10865 10864 10861 10861 10858 10855 10853 10852 10851 10849 10846 10843
10838 10841 10842 10844 10844 10846 10848 10850 10853 10855 10856 10857 10858 10860 10861 10862 10864 10864 10864 10865 10865 10865 10865 10865 10865 10865 10864 10864 10864 10862 10860 10858 10858 10856 10855 10853 10851 10848 10844 10842 10840 10839 10837 10835 10831
10828 10832 10833 10835 10835 10836 10839 10841 10843 10846 10847 10849 10850 10852 10853 10854 10856 10857 10857 10857 10858 10859 10858 10858 10858 10858 10857 10856 10856 10855 10853 10851 10848 10846 10844 10844 10841 10838 10834 10829 10828 10827 10825 10823 10820
10816 10820 10822 10823 10825 10826 10827 10830 10832 10834 10837 10839 10840 10844 10845 10845 10847 10848 10849 10849 10850 10849 10850 10850 10851 10850 10849 10849 10848 10846 10844 10843 10841 10837 10835 10832 10831 10827 10823 10820 10815 10813 10812 10809 10807
10802 10806 10810 10811 10813 10814 10815 10818 10820 10822 10825 10827 10830 10832 10832 10834 10837 10838 10838 10839 10839 10839 10840 10840 10842 10841 10840 10840 10840 10838 10835 10834 10832 10827 10826 10823 10819 10817 10814 10810 10805 10802 10799 10796 10794
10789 10791 10795 10798 10801 10801 10802 10805 10808 10809 10813 10817 10816 10819 10818 10822 10825 10826 10826 10829 10829 10829 10828 10829 10830 10830 10829 10829 10828 10828 10826 10825 10822 10818 10815 10811 10808 10806 10801 10798 10793 10791 10788 10785 10782
10776 10775 10781 10787 10788 10788 10790 10792 10795 10796 10800 10803 10804 10804 10806 10808 10811 10813 10816 10817 10818 10817 10816 10818 10817 10817 10816 10817 10816 10816 10815 10814 10812 10808 10804 10802 10797 10792 10789 10788 10785 10780 10778 10775 10772
10761 10760 10764 10771 10774 10776 10776 10778 10781 10782 10785 10787 10789 10792 10793 10795 10799 10801 10804 10805 10806 10805 10803 10804 10804 10805 10805 10804 10804 10804 10803 10802 10799 10798 10795 10791 10788 10779 10778 10777 10776 10770 10768 10766 10762
10747 10745 10749 10754 10759 10762 10763 10766 10768 10771 10768 10776 10776 10777 10779 10782 10786 10788 10789 10791 10791 10791 10790 10789 10789 10790 10792 10793 10793 10791 10790 10788 10787 10786 10783 10780 10776 10770 10769 10766 10763 10760 10759 10757 10753
10732 10731 10734 10739 10743 10746 10749 10754 10758 10756 10755 10760 10761 10762 10765 10769 10770 10773 10775 10775 10775 10776 10777 10774 10773 10775 10777 10777 10778 10778 10776 10776 10775 10775 10771 10768 10765 10763 10760 10759 10755 10751 10748 10745 10741
10715 10715 10717 10722 10727 10729 10734 10738 10739 10739 10741 10743 10744 10747 10750 10754 10754 10756 10758 10759 10759 10758 10758 10757 10756 10759 10761 10761 10763 10764 10762 10762 10764 10761 10759 10757 10753 10751 10749 10748 10746 10743 10739 10735 10731
10695 10698 10698 10703 10708 10712 10715 10717 10720 10722 10723 10724 10727 10730 10730 10736 10737 10740 10739 10741 10739 10739 10739 10739 10738 10742 10744 10746 10747 10747 10748 10748 10749 10749 10746 10745 10741 10737 10739 10738 10735 10732 10730 10726 10723
10673 10677 10680 10681 10686 10691 10693 10696 10700 10702 10703 10706 10708 10710 10712 10714 10717 10720 10720 10720 10718 10717 10720 10719 10722 10724 10727 10729 10729 10733 10733 10733 10733 10735 10735 10733 10730 10726 10728 10728 10724 10723 10721 10718 10714
10649 10655 10659 10660 10664 10667 10671 10673 10677 10680 10681 10685 10686 10688 10692 10694 10695 10699 10700 10696 10693 10696 10698 10699 10701 10705 10708 10714 10713 10718 10717 10717 10720 10720 10722 10723 10719 10718 10714 10714 10714 10713 10711 10707 10703
10623 10628 10632 10637 10640 10643 10647 10651 10654 10657 10658 10661 10664 10666 10670 10671 10674 10675 10676 10674 10671 10671 10675 10678 10685 10689 10692 10698 10698 10699 10701 10705 10705 10707 10710 10710 10705 10706 10704 10703 10702 10701 10699 10695 10691
10603 10606 10606 10612 10616 10619 10622 10627 10630 10632 10636 10638 10642 10643 10647 10648 10650 10651 10650 10650 10651 10653 10653 10656 10667 10674 10678 10678 10679 10687 10689 10690 10693 10698 10695 10697 10693 10693 10693 10693 10690 10688 10685 10682 10678
10583 10588 10588 10592 10594 10597 10601 10606 10608 10611 10617 10619 10622 10624 10625 10628 10629 10630 10629 10630 10632 10636 10635 10640 10649 10651 10658 10663 10666 10672 10675 10678 10682 10683 10684 10680 10684 10679 10682 10682 10679 10677 10674 10670 10665
10565 10566 10569 10574 10576 10578 10581 10587 10589 10593 10597 10601 10605 10606 10608 10609 10611 10610 10612 10614 10616 10617 10618 10624 10632 10634 10640 10646 10651 10658 10662 10665 10668 10669 10670 10671 10670 10671 10671 10669 10668 10666 10662 10658 10653
10545 10548 10550 10555 10558 10560 10565 10568 10571 10575 10580 10585 10587 10591 10593 10596 10595 10595 10597 10598 10598 10599 10602 10606 10614 10616 10625 10627 10630 10646 10649 10650 10651 10653 10655 10657 10657 10660 10659 10659 10656 10653 10650 10646 10642